Location: Strawberry
(45.6646°N, 111.9596°W)
Time: 13:14:15
(UTC+00:00)

Transit 4A - Pass Details

Date: 08 October 2022
Orbit: 871 x 973 km, 66.8° (Epoch: 26 November)

Event Time Altitude Azimuth Distance (km) Brightness Sun altitude
Rises 11:23:22 0° 331° (NNW) 3,505 10.8 -23.6°
Reaches altitude 10° 11:26:20 10° 344° (NNW) 2,550 10.2 -23.1°
Maximum altitude 11:31:11 26° 39° (NE) 1,669 9.8 -22.3°
Drops below altitude 10° 11:35:58 10° 95° (E) 2,520 11.2 -21.5°
Sets 11:38:52 0° 108° (ESE) 3,455 11.8 -21.0°
